This demonstration page uses our WeatherBlox Daily Observations layout. Learn more.

Left ArrowRight Arrow

34.16533, -84.80231

Hourly Observations for August 30, 2019

Temp ( °F °C ) Dew Point ( °F °C ) Humidity (%) Winds ( mph kmh ) Pressure ( in mb ) Visibility ( mi km ) Precip ( " mm )
12:53 am 00:53 Clear 62 16.7 58 14.4 86 86 Calm 30.07 1018 10 16 0.00 0.00
1:53 am 01:53 Clear 62 16.7 58 14.4 86 86 Calm 30.09 1019 10 16 0.00 0.00
2:53 am 02:53 Clear 60 15.6 57 13.9 90 90 Calm 30.07 1018 10 16 0.00 0.00
3:53 am 03:53 Clear 59 15 56 13.3 90 90 Calm 30.06 1018 10 16 0.00 0.00
4:53 am 04:53 Clear 58 14.4 56 13.3 93 93 Calm 30.06 1018 10 16 0.00 0.00
5:53 am 05:53 Clear 57 13.9 55 12.8 93 93 Calm 30.06 1018 10 16 0.00 0.00
6:53 am 06:53 Clear 58 14.4 55 12.8 90 90 Calm 30.09 1019 10 16 0.00 0.00
7:53 am 07:53 Sunny 60 15.6 57 13.9 90 90 Calm 30.12 1020 10 16 0.00 0.00
8:53 am 08:53 Sunny 66 18.9 60 15.6 81 81 Calm 30.13 1020 10 16 0.00 0.00
9:53 am 09:53 Sunny 72 22.2 62 16.7 71 71 NNE 3 6 30.13 1020 10 16 0.00 0.00
10:53 am 10:53 Sunny 78 25.6 64 17.8 62 62 VRB 3 6 30.14 1021 10 16 0.00 0.00
11:53 am 11:53 Sunny 83 28.3 65 18.3 55 55 Calm 30.12 1020 10 16 0.00 0.00
12:53 pm 12:53 Sunny 86 30 62 16.7 45 45 NNE 6 9 30.11 1020 10 16 0.00 0.00
1:53 pm 13:53 Sunny 86 30 61 16.1 43 43 SE 5 7 30.09 1019 10 16 0.00 0.00
2:53 pm 14:53 Sunny 88 31.1 59 15 38 38 NNE 6 9 30.06 1018 10 16 0.00 0.00
3:53 pm 15:53 Sunny 90 32.2 59 15 35 35 VRB 3 6 30.04 1017 10 16 0.00 0.00
4:53 pm 16:53 Sunny 91 32.8 59 15 34 34 ENE 5 7 30.03 1017 10 16 0.00 0.00
5:53 pm 17:53 Sunny 89 31.7 59 15 36 36 ESE 7 11 30.02 1017 10 16 0.00 0.00
6:53 pm 18:53 Sunny 88 31.1 59 15 38 38 VRB 5 7 30.04 1017 10 16 0.00 0.00
7:53 pm 19:53 Sunny 83 28.3 60 15.6 46 46 Calm 30.04 1017 10 16 0.00 0.00
8:53 pm 20:53 Clear 72 22.2 63 17.2 73 73 Calm 30.06 1018 10 16 0.00 0.00
9:53 pm 21:53 Clear 71 21.7 63 17.2 76 76 Calm 30.09 1019 10 16 0.00 0.00
10:53 pm 22:53 Clear 67 19.4 63 17.2 87 87 Calm 30.11 1020 10 16 0.00 0.00
11:53 pm 23:53 Clear 67 19.4 63 17.2 87 87 Calm 30.12 1020 10 16 0.00 0.00

Powered by AerisWeather